Tracking 19246 objects as of 20-Aug-2018
HD Live streaming from Space Station
objects crossing your sky now

FENGYUN 1C DEB

Track FENGYUN 1C DEB now!
10-day predictions


NORAD ID: 30338
Int'l Code: 1999-025AAZ
Perigee: 564.2 km
Apogee: 1,063.7 km
Inclination: 98.8 °
Period: 101.0 minutes
Semi major axis: 7184 km
RCS: 0.0507 m2 (small)
Launch date: May 10, 1999
Source: People's Republic of China (PRC)
Launch site: Taiyaun Space Center, China (TSC)

Note: This is SATELLITE DEBRIS
aabbcc
Your satellite tracking list
Your tracking list is empty




NASA's NSSDC Master Catalog

Two Line Element Set (TLE):
1 30338U 99025AAZ 18232.10102552  .00000382  00000-0  98114-4 0  9994
2 30338  98.7828 282.1022 0347599 148.0876 268.4669 14.25509457599555
Source of the keplerian elements: AFSPC